EZY19XU LEMG-EGMC

Flight info

Callsign EZY19XU
Flight time 2h 24m
Altitude 36000
Route BLN N865 VTB N867 BLV P87 BELEN DIDIG UP87 MOKOR UN873 OLEBA ROGPU DIKRO UZ273 NEVIL
Aircraft A320/M-S/L

Departure

Time 2026-04-25 08:14
Airport Málaga-Costa del Sol Airport (LEMG)

Arrival

Time 2026-04-25 10:38
Airport London Southend Airport (EGMC)
Time Latitude Longitude Altitude Speed Heading
2026-04-25 07:41 36.67325 -4.48942 41 ft 0 kts 336°
2026-04-25 08:04 36.67324 -4.48941 41 ft 2 kts 336°
2026-04-25 08:04 36.67309 -4.48933 39 ft 2 kts 336°
2026-04-25 08:05 36.67294 -4.48925 37 ft 2 kts 341°
2026-04-25 08:05 36.67278 -4.48921 40 ft 2 kts
2026-04-25 08:05 36.67262 -4.48922 41 ft 2 kts 17°
2026-04-25 08:05 36.67247 -4.48930 40 ft 2 kts 43°
2026-04-25 08:06 36.67235 -4.48944 42 ft 2 kts 41°
2026-04-25 08:06 36.67222 -4.48958 42 ft 2 kts 40°
2026-04-25 08:06 36.67210 -4.48971 42 ft 2 kts 41°
2026-04-25 08:06 36.67197 -4.48985 44 ft 2 kts 44°
2026-04-25 08:07 36.67186 -4.49000 42 ft 2 kts 59°
2026-04-25 08:07 36.67179 -4.49018 43 ft 2 kts 83°
2026-04-25 08:07 36.67180 -4.49039 45 ft 2 kts 108°
2026-04-25 08:07 36.67187 -4.49057 45 ft 2 kts 134°
2026-04-25 08:08 36.67195 -4.49067 42 ft 1 kts 132°
2026-04-25 08:08 36.67195 -4.49068 42 ft 0 kts 131°
2026-04-25 08:10 36.67194 -4.49067 42 ft 1 kts 132°
2026-04-25 08:10 36.67184 -4.49053 45 ft 4 kts 133°
2026-04-25 08:10 36.67150 -4.49048 45 ft 6 kts 206°
2026-04-25 08:11 36.67116 -4.49070 46 ft 6 kts 187°
2026-04-25 08:11 36.67070 -4.49028 46 ft 11 kts 131°
2026-04-25 08:11 36.67005 -4.48937 46 ft 17 kts 132°
2026-04-25 08:11 36.66911 -4.48807 42 ft 23 kts 131°
2026-04-25 08:12 36.66812 -4.48668 40 ft 19 kts 132°
2026-04-25 08:12 36.66735 -4.48560 37 ft 15 kts 131°
2026-04-25 08:12 36.66679 -4.48493 38 ft 10 kts 153°
2026-04-25 08:12 36.66622 -4.48508 39 ft 8 kts 220°
2026-04-25 08:13 36.66589 -4.48546 41 ft 7 kts 223°
2026-04-25 08:13 36.66561 -4.48598 42 ft 8 kts 262°
2026-04-25 08:13 36.66603 -4.48674 41 ft 14 kts 312°
2026-04-25 08:14 36.67256 -4.49585 49 ft 133 kts 311°
2026-04-25 08:14 36.67982 -4.50606 159 ft 170 kts 311°
2026-04-25 08:14 36.68731 -4.51699 862 ft 167 kts 309°
2026-04-25 08:14 36.69478 -4.52826 1514 ft 174 kts 309°
2026-04-25 08:15 36.70292 -4.54068 1890 ft 196 kts 309°
2026-04-25 08:15 36.71200 -4.55449 2280 ft 213 kts 309°
2026-04-25 08:15 36.72156 -4.56891 2895 ft 218 kts 309°
2026-04-25 08:15 36.73221 -4.58258 3572 ft 222 kts 326°
2026-04-25 08:16 36.74636 -4.59018 4334 ft 224 kts 344°
2026-04-25 08:16 36.76144 -4.59563 5142 ft 227 kts 345°
2026-04-25 08:16 36.77670 -4.60116 5947 ft 230 kts 345°
2026-04-25 08:16 36.79218 -4.60676 6738 ft 233 kts 346°
2026-04-25 08:17 36.80825 -4.60903 7443 ft 235 kts
2026-04-25 08:17 36.82408 -4.60362 8016 ft 246 kts 29°
2026-04-25 08:17 36.83779 -4.59061 8545 ft 256 kts 43°
2026-04-25 08:17 36.85128 -4.57541 9320 ft 260 kts 43°
2026-04-25 08:18 36.86474 -4.56051 10104 ft 264 kts 42°
2026-04-25 08:18 36.87860 -4.54530 10845 ft 266 kts 42°
2026-04-25 08:18 36.89262 -4.52997 11589 ft 269 kts 42°
2026-04-25 08:18 36.90674 -4.51452 12330 ft 271 kts 42°
2026-04-25 08:19 36.92099 -4.49886 13070 ft 274 kts 42°
2026-04-25 08:19 36.93534 -4.48304 13819 ft 276 kts 42°
2026-04-25 08:19 36.94980 -4.46709 14460 ft 279 kts 42°
2026-04-25 08:19 36.96446 -4.45091 15103 ft 282 kts 42°
2026-04-25 08:20 36.97934 -4.43470 15737 ft 285 kts 39°
2026-04-25 08:20 36.99616 -4.42044 16055 ft 302 kts 33°
2026-04-25 08:20 37.00818 -4.41083 16139 ft 317 kts 33°
2026-04-25 08:20 37.02743 -4.39558 16271 ft 337 kts 33°
2026-04-25 08:21 37.04788 -4.37946 16400 ft 357 kts 33°
2026-04-25 08:21 37.06942 -4.36246 16530 ft 375 kts 33°
2026-04-25 08:21 37.09181 -4.34473 16796 ft 387 kts 33°
2026-04-25 08:21 37.11472 -4.32655 17291 ft 392 kts 33°
2026-04-25 08:22 37.13785 -4.30816 17834 ft 395 kts 33°
2026-04-25 08:22 37.16114 -4.28959 18374 ft 399 kts 33°
2026-04-25 08:22 37.18464 -4.27081 18861 ft 402 kts 33°
2026-04-25 08:22 37.21632 -4.24546 19510 ft 405 kts 34°
2026-04-25 08:23 37.23207 -4.23286 19817 ft 407 kts 34°
2026-04-25 08:23 37.25601 -4.21374 20300 ft 409 kts 34°
2026-04-25 08:23 37.28008 -4.19449 20775 ft 412 kts 34°
2026-04-25 08:23 37.30433 -4.17505 21229 ft 414 kts 34°
2026-04-25 08:24 37.32868 -4.15552 21675 ft 417 kts 34°
2026-04-25 08:24 37.35325 -4.13584 22115 ft 420 kts 34°
2026-04-25 08:24 37.37795 -4.11604 22534 ft 423 kts 34°
2026-04-25 08:24 37.40281 -4.09606 22972 ft 425 kts 34°
2026-04-25 08:25 37.42786 -4.07594 23385 ft 428 kts 34°
2026-04-25 08:25 37.45304 -4.05566 23766 ft 431 kts 34°
2026-04-25 08:25 37.47834 -4.03525 24113 ft 433 kts 35°
2026-04-25 08:25 37.50378 -4.01473 24453 ft 436 kts 35°
2026-04-25 08:26 37.52943 -3.99406 24786 ft 438 kts 35°
2026-04-25 08:26 37.55513 -3.97336 25124 ft 440 kts 35°
2026-04-25 08:26 37.58100 -3.95249 25459 ft 443 kts 35°
2026-04-25 08:26 37.60702 -3.93150 25792 ft 445 kts 35°
2026-04-25 08:27 37.63317 -3.91037 26119 ft 447 kts 35°
2026-04-25 08:27 37.65940 -3.88912 26429 ft 449 kts 36°
2026-04-25 08:27 37.68544 -3.86799 26720 ft 452 kts 36°
2026-04-25 08:27 37.71190 -3.84648 27023 ft 454 kts 36°
2026-04-25 08:28 37.73850 -3.82487 27301 ft 456 kts 36°
2026-04-25 08:28 37.76524 -3.80316 27602 ft 458 kts 36°
2026-04-25 08:28 37.79209 -3.78130 27879 ft 460 kts 36°
2026-04-25 08:28 37.81920 -3.75960 28150 ft 463 kts 33°
2026-04-25 08:29 37.84840 -3.74177 28447 ft 469 kts 24°
2026-04-25 08:29 37.87948 -3.72904 28832 ft 470 kts 19°
2026-04-25 08:29 37.91074 -3.71726 29235 ft 469 kts 20°
2026-04-25 08:29 37.94204 -3.70538 29629 ft 468 kts 20°
2026-04-25 08:30 37.97323 -3.69350 30038 ft 468 kts 20°
2026-04-25 08:30 38.00434 -3.68159 30385 ft 467 kts 20°
2026-04-25 08:30 38.03542 -3.66966 30722 ft 466 kts 20°
2026-04-25 08:30 38.06648 -3.65774 31079 ft 465 kts 20°
2026-04-25 08:31 38.09745 -3.64585 31414 ft 464 kts 20°
2026-04-25 08:31 38.12833 -3.63401 31757 ft 463 kts 20°
2026-04-25 08:31 38.15985 -3.62475 32097 ft 466 kts 11°
2026-04-25 08:31 38.19215 -3.62084 32427 ft 468 kts
2026-04-25 08:32 38.22459 -3.61784 32752 ft 467 kts
2026-04-25 08:32 38.25702 -3.61477 33076 ft 466 kts
2026-04-25 08:32 38.28936 -3.61164 33395 ft 466 kts
2026-04-25 08:32 38.32169 -3.60847 33712 ft 466 kts
2026-04-25 08:33 38.35398 -3.60532 34032 ft 466 kts
2026-04-25 08:33 38.38632 -3.60220 34307 ft 465 kts
2026-04-25 08:33 38.41858 -3.59906 34608 ft 464 kts
2026-04-25 08:33 38.45075 -3.59590 34911 ft 463 kts
2026-04-25 08:34 38.48280 -3.59277 35207 ft 462 kts
2026-04-25 08:34 38.51480 -3.58968 35493 ft 461 kts
2026-04-25 08:34 38.54674 -3.58662 35775 ft 459 kts
2026-04-25 08:34 38.57854 -3.58355 36028 ft 459 kts
2026-04-25 08:35 38.61043 -3.58046 36105 ft 460 kts
2026-04-25 08:35 38.67388 -3.57421 36111 ft 461 kts
2026-04-25 08:36 38.73784 -3.56797 36108 ft 461 kts
2026-04-25 08:36 38.80174 -3.56162 36116 ft 461 kts
2026-04-25 08:37 38.86571 -3.55533 36120 ft 461 kts
2026-04-25 08:37 38.92975 -3.54914 36115 ft 461 kts
2026-04-25 08:38 38.99376 -3.54282 36117 ft 461 kts
2026-04-25 08:38 39.05774 -3.53641 36120 ft 461 kts
2026-04-25 08:39 39.12171 -3.53004 36121 ft 461 kts
2026-04-25 08:39 39.18570 -3.52371 36121 ft 461 kts
2026-04-25 08:40 39.24921 -3.51735 36128 ft 461 kts
2026-04-25 08:40 39.31309 -3.51099 36131 ft 461 kts
2026-04-25 08:41 39.37702 -3.50464 36133 ft 460 kts
2026-04-25 08:41 39.44085 -3.49822 36135 ft 460 kts
2026-04-25 08:42 39.50471 -3.49183 36137 ft 460 kts
2026-04-25 08:42 39.56857 -3.48535 36138 ft 460 kts
2026-04-25 08:43 39.63235 -3.47891 36137 ft 460 kts
2026-04-25 08:43 39.69617 -3.47249 36135 ft 460 kts
2026-04-25 08:44 39.75999 -3.46603 36139 ft 460 kts
2026-04-25 08:44 39.82361 -3.45759 36138 ft 459 kts
2026-04-25 08:45 39.88625 -3.44458 36137 ft 459 kts 11°
2026-04-25 08:45 39.94913 -3.43044 36140 ft 459 kts 10°
2026-04-25 08:46 40.01220 -3.41731 36143 ft 459 kts
2026-04-25 08:46 40.07530 -3.40488 36149 ft 458 kts
2026-04-25 08:47 40.13834 -3.39246 36150 ft 458 kts
2026-04-25 08:47 40.20088 -3.37987 36155 ft 458 kts
2026-04-25 08:48 40.26379 -3.36718 36146 ft 458 kts
2026-04-25 08:48 40.32683 -3.35437 36142 ft 458 kts
2026-04-25 08:49 40.38971 -3.34153 36138 ft 458 kts
2026-04-25 08:49 40.45271 -3.32874 36133 ft 458 kts
2026-04-25 08:50 40.51573 -3.31595 36130 ft 458 kts
2026-04-25 08:50 40.57883 -3.30316 36128 ft 459 kts
2026-04-25 08:51 40.64201 -3.29022 36129 ft 460 kts
2026-04-25 08:51 40.70526 -3.27723 36132 ft 460 kts
2026-04-25 08:52 40.76851 -3.26420 36132 ft 461 kts
2026-04-25 08:52 40.83143 -3.25124 36134 ft 461 kts
2026-04-25 08:53 40.89484 -3.23794 36134 ft 461 kts
2026-04-25 08:53 40.95814 -3.22371 36142 ft 461 kts 10°
2026-04-25 08:54 41.02139 -3.20922 36148 ft 461 kts
2026-04-25 08:54 41.08470 -3.19496 36151 ft 461 kts
2026-04-25 08:55 41.14793 -3.18076 36152 ft 461 kts
2026-04-25 08:55 41.21118 -3.16646 36153 ft 461 kts
2026-04-25 08:56 41.27440 -3.15221 36154 ft 461 kts
2026-04-25 08:56 41.33762 -3.13786 36159 ft 461 kts
2026-04-25 08:57 41.40037 -3.12366 36161 ft 460 kts
2026-04-25 08:57 41.46358 -3.10941 36159 ft 460 kts
2026-04-25 08:58 41.52673 -3.09506 36158 ft 461 kts
2026-04-25 08:58 41.58992 -3.08062 36154 ft 461 kts
2026-04-25 08:59 41.65317 -3.06616 36152 ft 461 kts
2026-04-25 08:59 41.71640 -3.05175 36151 ft 461 kts
2026-04-25 09:00 41.77973 -3.03737 36153 ft 461 kts
2026-04-25 09:00 41.84258 -3.02293 36152 ft 461 kts
2026-04-25 09:01 41.90591 -3.00831 36158 ft 462 kts
2026-04-25 09:01 41.96924 -2.99363 36159 ft 462 kts
2026-04-25 09:02 42.03253 -2.97895 36168 ft 462 kts
2026-04-25 09:02 42.09586 -2.96424 36182 ft 462 kts
2026-04-25 09:03 42.15915 -2.94957 36184 ft 461 kts
2026-04-25 09:03 42.22245 -2.93477 36190 ft 461 kts
2026-04-25 09:04 42.28566 -2.92001 36198 ft 461 kts
2026-04-25 09:04 42.34847 -2.90525 36199 ft 461 kts
2026-04-25 09:05 42.41164 -2.89034 36202 ft 461 kts
2026-04-25 09:05 42.47514 -2.88164 36206 ft 458 kts 356°
2026-04-25 09:06 42.53888 -2.88521 36208 ft 458 kts 356°
2026-04-25 09:06 42.60261 -2.88853 36210 ft 458 kts 356°
2026-04-25 09:07 42.66637 -2.89178 36211 ft 458 kts 356°
2026-04-25 09:07 42.73015 -2.89507 36213 ft 459 kts 356°
2026-04-25 09:08 42.79397 -2.89845 36218 ft 459 kts 356°
2026-04-25 09:08 42.85775 -2.90183 36216 ft 459 kts 356°
2026-04-25 09:09 42.92159 -2.90521 36214 ft 459 kts 356°
2026-04-25 09:09 42.98549 -2.90851 36210 ft 460 kts 356°
2026-04-25 09:10 43.04948 -2.91175 36208 ft 460 kts 356°
2026-04-25 09:10 43.11307 -2.91511 36209 ft 461 kts 356°
2026-04-25 09:11 43.20921 -2.92028 36210 ft 461 kts 356°
2026-04-25 09:11 43.27330 -2.92375 36215 ft 461 kts 356°
2026-04-25 09:12 43.32659 -2.91887 36213 ft 464 kts 10°
2026-04-25 09:12 43.38966 -2.90035 36216 ft 464 kts 11°
2026-04-25 09:13 43.45290 -2.88175 36212 ft 464 kts 11°
2026-04-25 09:13 43.52636 -2.86023 36214 ft 465 kts 11°
2026-04-25 09:14 43.57934 -2.84463 36211 ft 465 kts 11°
2026-04-25 09:14 43.64216 -2.82605 36209 ft 465 kts 11°
2026-04-25 09:15 43.70537 -2.80718 36208 ft 465 kts 11°
2026-04-25 09:15 43.76840 -2.78690 36205 ft 465 kts 12°
2026-04-25 09:16 43.83134 -2.76589 36199 ft 465 kts 12°
2026-04-25 09:16 43.89430 -2.74503 36196 ft 465 kts 12°
2026-04-25 09:17 43.98956 -2.71956 36192 ft 464 kts
2026-04-25 09:18 44.05311 -2.70728 36193 ft 464 kts
2026-04-25 09:18 44.11708 -2.69426 36188 ft 465 kts
2026-04-25 09:19 44.18093 -2.68005 36186 ft 465 kts
2026-04-25 09:19 44.24477 -2.66547 36183 ft 465 kts
2026-04-25 09:20 44.30873 -2.65113 36180 ft 465 kts
2026-04-25 09:20 44.37262 -2.63695 36175 ft 465 kts
2026-04-25 09:21 44.43619 -2.62275 36176 ft 465 kts
2026-04-25 09:21 44.50011 -2.60832 36176 ft 466 kts
2026-04-25 09:22 44.56415 -2.59388 36172 ft 466 kts
2026-04-25 09:22 44.62817 -2.57946 36170 ft 466 kts
2026-04-25 09:23 44.69219 -2.56498 36167 ft 466 kts
2026-04-25 09:23 44.75625 -2.55055 36163 ft 466 kts
2026-04-25 09:24 44.81992 -2.53617 36159 ft 467 kts
2026-04-25 09:24 44.88404 -2.52159 36160 ft 467 kts
2026-04-25 09:25 44.94815 -2.50689 36158 ft 467 kts
2026-04-25 09:25 45.01224 -2.49226 36157 ft 467 kts
2026-04-25 09:26 45.07632 -2.47760 36158 ft 467 kts
2026-04-25 09:26 45.14050 -2.46285 36154 ft 467 kts
2026-04-25 09:27 45.20458 -2.44817 36155 ft 467 kts
2026-04-25 09:27 45.26873 -2.43346 36154 ft 467 kts
2026-04-25 09:28 45.33244 -2.41866 36150 ft 467 kts
2026-04-25 09:28 45.39657 -2.40376 36146 ft 467 kts
2026-04-25 09:29 45.46073 -2.38888 36150 ft 467 kts
2026-04-25 09:29 45.52483 -2.37400 36153 ft 467 kts
2026-04-25 09:30 45.58895 -2.35901 36147 ft 467 kts
2026-04-25 09:30 45.65309 -2.34400 36144 ft 467 kts
2026-04-25 09:31 45.71722 -2.32911 36140 ft 467 kts
2026-04-25 09:31 45.78142 -2.31410 36141 ft 467 kts
2026-04-25 09:32 45.84561 -2.29892 36144 ft 467 kts
2026-04-25 09:32 45.90971 -2.28363 36144 ft 467 kts
2026-04-25 09:33 45.97387 -2.26842 36146 ft 467 kts
2026-04-25 09:33 46.03804 -2.25326 36144 ft 467 kts
2026-04-25 09:34 46.10180 -2.23803 36140 ft 467 kts
2026-04-25 09:34 46.16592 -2.22234 36136 ft 467 kts
2026-04-25 09:35 46.23005 -2.20660 36139 ft 467 kts
2026-04-25 09:35 46.29420 -2.19088 36138 ft 468 kts
2026-04-25 09:36 46.35835 -2.17518 36133 ft 468 kts
2026-04-25 09:36 46.42257 -2.15936 36135 ft 468 kts
2026-04-25 09:37 46.48667 -2.14353 36131 ft 468 kts
2026-04-25 09:37 46.55078 -2.12771 36139 ft 468 kts
2026-04-25 09:38 46.61491 -2.11173 36137 ft 468 kts
2026-04-25 09:38 46.67906 -2.09575 36137 ft 467 kts
2026-04-25 09:39 46.74276 -2.07994 36136 ft 467 kts
2026-04-25 09:39 46.80686 -2.06403 36135 ft 467 kts
2026-04-25 09:40 46.90305 -2.04003 36135 ft 467 kts
2026-04-25 09:40 46.96708 -2.02351 36128 ft 468 kts 11°
2026-04-25 09:41 47.02763 -1.98847 36131 ft 471 kts 30°
2026-04-25 09:41 47.08086 -1.93235 36129 ft 472 kts 36°
2026-04-25 09:42 47.13388 -1.87558 36128 ft 471 kts 30°
2026-04-25 09:42 47.19383 -1.83814 36126 ft 467 kts 12°
2026-04-25 09:43 47.25744 -1.81946 36124 ft 467 kts
2026-04-25 09:43 47.32124 -1.80109 36127 ft 467 kts
2026-04-25 09:44 47.38502 -1.78258 36129 ft 467 kts
2026-04-25 09:44 47.44889 -1.76423 36143 ft 467 kts
2026-04-25 09:45 47.51268 -1.74585 36139 ft 467 kts
2026-04-25 09:45 47.57651 -1.72728 36145 ft 467 kts
2026-04-25 09:46 47.64035 -1.70868 36149 ft 467 kts
2026-04-25 09:46 47.70369 -1.69024 36146 ft 467 kts
2026-04-25 09:47 47.76752 -1.67162 36155 ft 467 kts
2026-04-25 09:47 47.83129 -1.65294 36158 ft 467 kts
2026-04-25 09:48 47.89515 -1.63422 36160 ft 467 kts
2026-04-25 09:48 47.95893 -1.61547 36161 ft 467 kts
2026-04-25 09:49 48.02269 -1.59669 36162 ft 467 kts
2026-04-25 09:49 48.08651 -1.57776 36160 ft 467 kts
2026-04-25 09:50 48.15030 -1.55880 36161 ft 467 kts
2026-04-25 09:50 48.21412 -1.53990 36161 ft 467 kts
2026-04-25 09:51 48.27792 -1.52085 36162 ft 468 kts
2026-04-25 09:51 48.34134 -1.50185 36160 ft 468 kts
2026-04-25 09:52 48.40521 -1.48279 36161 ft 468 kts
2026-04-25 09:52 48.46908 -1.46370 36159 ft 468 kts
2026-04-25 09:53 48.53297 -1.44452 36161 ft 468 kts
2026-04-25 09:53 48.59681 -1.42519 36161 ft 468 kts
2026-04-25 09:54 48.66069 -1.40576 36165 ft 468 kts
2026-04-25 09:54 48.72455 -1.38610 36169 ft 468 kts 10°
2026-04-25 09:55 48.78838 -1.36598 36177 ft 468 kts 10°
2026-04-25 09:55 48.85207 -1.34582 36175 ft 468 kts 10°
2026-04-25 09:56 48.91586 -1.32553 36177 ft 468 kts 10°
2026-04-25 09:56 48.97955 -1.30528 36178 ft 468 kts 10°
2026-04-25 09:57 49.04325 -1.28505 36178 ft 467 kts 10°
2026-04-25 09:57 49.10689 -1.26484 36179 ft 467 kts 10°
2026-04-25 09:58 49.17015 -1.24468 36178 ft 467 kts 10°
2026-04-25 09:58 49.23377 -1.22424 36186 ft 467 kts 10°
2026-04-25 09:59 49.29730 -1.20380 36184 ft 467 kts 10°
2026-04-25 09:59 49.36087 -1.18338 36181 ft 467 kts 10°
2026-04-25 10:00 49.42440 -1.16290 36190 ft 466 kts 10°
2026-04-25 10:00 49.48793 -1.14233 36193 ft 466 kts 10°
2026-04-25 10:01 49.55052 -1.11648 36189 ft 468 kts 22°
2026-04-25 10:01 49.60572 -1.06366 36186 ft 470 kts 41°
2026-04-25 10:02 49.64932 -0.98873 36186 ft 470 kts 51°
2026-04-25 10:02 49.69069 -0.91034 36189 ft 471 kts 51°
2026-04-25 10:03 49.73172 -0.83251 35972 ft 463 kts 51°
2026-04-25 10:03 49.75177 -0.79431 35693 ft 454 kts 51°
2026-04-25 10:03 49.77146 -0.75671 35312 ft 449 kts 51°
2026-04-25 10:04 49.79116 -0.71904 35040 ft 448 kts 51°
2026-04-25 10:04 49.81067 -0.68160 34771 ft 446 kts 51°
2026-04-25 10:04 49.83013 -0.64424 34502 ft 445 kts 51°
2026-04-25 10:04 49.84953 -0.60703 34208 ft 443 kts 51°
2026-04-25 10:05 49.86886 -0.56995 33888 ft 441 kts 51°
2026-04-25 10:05 49.88804 -0.53298 33571 ft 439 kts 51°
2026-04-25 10:05 49.90710 -0.49613 33263 ft 437 kts 51°
2026-04-25 10:05 49.92642 -0.45978 32971 ft 435 kts 45°
2026-04-25 10:06 49.94927 -0.42940 32682 ft 431 kts 37°
2026-04-25 10:06 49.97280 -0.40067 32396 ft 430 kts 37°
2026-04-25 10:06 49.99634 -0.37217 32113 ft 428 kts 36°
2026-04-25 10:06 50.01983 -0.34387 31833 ft 426 kts 36°
2026-04-25 10:07 50.03528 -0.32523 31651 ft 425 kts 36°
2026-04-25 10:07 50.05860 -0.29699 31381 ft 423 kts 37°
2026-04-25 10:07 50.08179 -0.26879 31097 ft 422 kts 37°
2026-04-25 10:07 50.10484 -0.24068 30826 ft 420 kts 37°
2026-04-25 10:08 50.12777 -0.21269 30558 ft 418 kts 36°
2026-04-25 10:08 50.14957 -0.18285 30290 ft 417 kts 49°
2026-04-25 10:08 50.16609 -0.14577 29980 ft 416 kts 57°
2026-04-25 10:08 50.18140 -0.10757 29668 ft 414 kts 58°
2026-04-25 10:09 50.19649 -0.06941 29361 ft 412 kts 58°
2026-04-25 10:09 50.21143 -0.03137 29055 ft 409 kts 58°
2026-04-25 10:09 50.22626 0.00643 28753 ft 407 kts 58°
2026-04-25 10:09 50.24105 0.04403 28457 ft 405 kts 58°
2026-04-25 10:10 50.25576 0.08136 28166 ft 403 kts 58°
2026-04-25 10:10 50.27040 0.11846 27872 ft 400 kts 58°
2026-04-25 10:10 50.28495 0.15541 27572 ft 398 kts 58°
2026-04-25 10:10 50.29943 0.19222 27301 ft 396 kts 58°
2026-04-25 10:11 50.31383 0.22887 27018 ft 394 kts 58°
2026-04-25 10:11 50.32813 0.26533 26740 ft 392 kts 58°
2026-04-25 10:11 50.34232 0.30163 26461 ft 390 kts 58°
2026-04-25 10:11 50.35641 0.33772 26193 ft 388 kts 58°
2026-04-25 10:12 50.37049 0.37372 25927 ft 386 kts 58°
2026-04-25 10:12 50.38444 0.40950 25661 ft 384 kts 58°
2026-04-25 10:12 50.41210 0.48069 25117 ft 380 kts 58°
2026-04-25 10:13 50.42599 0.51577 24862 ft 378 kts 57°
2026-04-25 10:13 50.44023 0.55046 24604 ft 377 kts 56°
2026-04-25 10:13 50.45454 0.58474 24348 ft 375 kts 56°
2026-04-25 10:13 50.46883 0.61881 24105 ft 373 kts 56°
2026-04-25 10:14 50.48299 0.65279 23874 ft 372 kts 56°
2026-04-25 10:14 50.49706 0.68675 23570 ft 370 kts 56°
2026-04-25 10:14 50.51098 0.72057 23247 ft 368 kts 56°
2026-04-25 10:14 50.52480 0.75431 22921 ft 366 kts 56°
2026-04-25 10:15 50.53851 0.78788 22592 ft 364 kts 56°
2026-04-25 10:15 50.55216 0.82129 22279 ft 362 kts 57°
2026-04-25 10:15 50.56573 0.85456 21970 ft 360 kts 57°
2026-04-25 10:15 50.57907 0.88727 21664 ft 359 kts 57°
2026-04-25 10:16 50.59297 0.91965 21356 ft 356 kts 49°
2026-04-25 10:16 50.61113 0.94565 21054 ft 352 kts 33°
2026-04-25 10:16 50.63123 0.96751 20753 ft 351 kts 33°
2026-04-25 10:16 50.65131 0.98932 20451 ft 349 kts 33°
2026-04-25 10:17 50.67124 1.01096 20164 ft 347 kts 33°
2026-04-25 10:17 50.69110 1.03253 19872 ft 346 kts 33°
2026-04-25 10:17 50.71086 1.05408 19582 ft 344 kts 33°
2026-04-25 10:17 50.73050 1.07557 19299 ft 343 kts 33°
2026-04-25 10:18 50.75006 1.09698 19015 ft 341 kts 33°
2026-04-25 10:18 50.76951 1.11830 18737 ft 340 kts 33°
2026-04-25 10:18 50.78888 1.13954 18445 ft 338 kts 33°
2026-04-25 10:18 50.80811 1.16065 18120 ft 336 kts 33°
2026-04-25 10:19 50.82730 1.18172 17798 ft 335 kts 33°
2026-04-25 10:19 50.84634 1.20264 17484 ft 333 kts 33°
2026-04-25 10:19 50.86528 1.22348 17171 ft 331 kts 33°
2026-04-25 10:19 50.88411 1.24423 16861 ft 329 kts 33°
2026-04-25 10:20 50.90262 1.26467 16558 ft 327 kts 33°
2026-04-25 10:20 50.92146 1.28549 16245 ft 325 kts 33°
2026-04-25 10:20 50.93969 1.30567 15948 ft 324 kts 34°
2026-04-25 10:20 50.95838 1.32547 15641 ft 321 kts 27°
2026-04-25 10:21 50.97906 1.33767 15357 ft 317 kts 11°
2026-04-25 10:21 51.00056 1.34516 15061 ft 315 kts 11°
2026-04-25 10:21 51.02194 1.35259 14773 ft 314 kts 11°
2026-04-25 10:21 51.04322 1.35999 14485 ft 312 kts 11°
2026-04-25 10:22 51.06446 1.36735 14212 ft 311 kts 11°
2026-04-25 10:22 51.08553 1.37471 13953 ft 309 kts 12°
2026-04-25 10:22 51.10650 1.38205 13660 ft 308 kts 12°
2026-04-25 10:22 51.12736 1.38935 13369 ft 306 kts 11°
2026-04-25 10:23 51.14811 1.39660 13085 ft 304 kts 11°
2026-04-25 10:23 51.16874 1.40383 12792 ft 303 kts 11°
2026-04-25 10:23 51.18924 1.41100 12511 ft 301 kts 12°
2026-04-25 10:23 51.20961 1.41813 12231 ft 299 kts 11°
2026-04-25 10:24 51.22990 1.42527 11950 ft 297 kts 11°
2026-04-25 10:24 51.25003 1.43237 11676 ft 296 kts 11°
2026-04-25 10:24 51.26980 1.43934 11409 ft 294 kts 11°
2026-04-25 10:24 51.28973 1.44638 11143 ft 293 kts 11°
2026-04-25 10:25 51.30956 1.45341 10872 ft 291 kts 11°
2026-04-25 10:25 51.32924 1.46036 10604 ft 289 kts 11°
2026-04-25 10:25 51.34881 1.46728 10342 ft 288 kts 11°
2026-04-25 10:25 51.36831 1.47416 10072 ft 286 kts 11°
2026-04-25 10:26 51.38772 1.48102 9786 ft 285 kts 11°
2026-04-25 10:26 51.40707 1.48790 9494 ft 284 kts 12°
2026-04-25 10:26 51.42630 1.49475 9208 ft 282 kts 12°
2026-04-25 10:26 51.44543 1.50128 8924 ft 281 kts
2026-04-25 10:27 51.46481 1.50191 8643 ft 278 kts 352°
2026-04-25 10:27 51.48386 1.49673 8364 ft 277 kts 349°
2026-04-25 10:27 51.50285 1.49145 8086 ft 276 kts 350°
2026-04-25 10:27 51.52179 1.48630 7809 ft 275 kts 350°
2026-04-25 10:28 51.54063 1.48118 7536 ft 274 kts 350°
2026-04-25 10:28 51.55942 1.47602 7269 ft 273 kts 350°
2026-04-25 10:28 51.57813 1.47090 7003 ft 272 kts 351°
2026-04-25 10:28 51.59657 1.46587 6742 ft 272 kts 351°
2026-04-25 10:29 51.61521 1.46075 6484 ft 271 kts 351°
2026-04-25 10:29 51.63376 1.45564 6277 ft 271 kts 351°
2026-04-25 10:29 51.65169 1.44693 6067 ft 270 kts 332°
2026-04-25 10:29 51.66609 1.42776 5815 ft 271 kts 308°
2026-04-25 10:30 51.67419 1.40057 5569 ft 272 kts 283°
2026-04-25 10:30 51.67532 1.38054 5402 ft 272 kts 269°
2026-04-25 10:30 51.67424 1.33975 5066 ft 272 kts 268°
2026-04-25 10:30 51.67341 1.30981 4811 ft 264 kts 268°
2026-04-25 10:31 51.67261 1.28076 4574 ft 255 kts 268°
2026-04-25 10:31 51.67185 1.25264 4358 ft 247 kts 268°
2026-04-25 10:31 51.67112 1.22543 4152 ft 240 kts 268°
2026-04-25 10:31 51.67039 1.19901 3955 ft 233 kts 268°
2026-04-25 10:32 51.66969 1.17320 3760 ft 228 kts 268°
2026-04-25 10:32 51.66902 1.14829 3583 ft 223 kts 268°
2026-04-25 10:32 51.66834 1.12354 3404 ft 219 kts 268°
2026-04-25 10:32 51.66768 1.09935 3224 ft 215 kts 268°
2026-04-25 10:33 51.66703 1.07553 3043 ft 211 kts 268°
2026-04-25 10:33 51.66636 1.05212 2863 ft 208 kts 268°
2026-04-25 10:33 51.66571 1.02898 2692 ft 206 kts 268°
2026-04-25 10:33 51.66506 1.00610 2502 ft 203 kts 268°
2026-04-25 10:34 51.66441 0.98351 2334 ft 201 kts 268°
2026-04-25 10:34 51.66375 0.96116 2145 ft 199 kts 268°
2026-04-25 10:34 51.66309 0.93901 2040 ft 198 kts 268°
2026-04-25 10:34 51.66244 0.91676 2015 ft 198 kts 268°
2026-04-25 10:35 51.65978 0.89524 2004 ft 198 kts 246°
2026-04-25 10:35 51.65255 0.87659 2007 ft 195 kts 233°
2026-04-25 10:35 51.64467 0.85900 2002 ft 192 kts 233°
2026-04-25 10:35 51.63695 0.84173 2010 ft 193 kts 233°
2026-04-25 10:36 51.62911 0.82421 1870 ft 192 kts 233°
2026-04-25 10:36 51.62153 0.80726 1609 ft 181 kts 234°
2026-04-25 10:36 51.61424 0.79099 1384 ft 176 kts 234°
2026-04-25 10:36 51.60729 0.77546 1142 ft 168 kts 234°
2026-04-25 10:37 51.60066 0.76069 960 ft 156 kts 234°
2026-04-25 10:37 51.59446 0.74687 749 ft 148 kts 233°
2026-04-25 10:37 51.58855 0.73370 549 ft 143 kts 234°
2026-04-25 10:37 51.58283 0.72091 358 ft 139 kts 234°
2026-04-25 10:38 51.57719 0.70836 175 ft 137 kts 234°
2026-04-25 10:38 51.57169 0.69611 47 ft 127 kts 234°
2026-04-25 10:38 51.56814 0.68819 47 ft 44 kts 234°
2026-04-25 10:38 51.56697 0.68560 47 ft 25 kts 234°
2026-04-25 10:39 51.56624 0.68399 47 ft 16 kts 234°
2026-04-25 10:39 51.56565 0.68271 49 ft 12 kts 230°
2026-04-25 10:39 51.56515 0.68216 49 ft 6 kts 232°
2026-04-25 10:39 51.56536 0.68199 47 ft 6 kts 32°
2026-04-25 10:40 51.56573 0.68284 49 ft 13 kts 54°
2026-04-25 10:40 51.56643 0.68439 49 ft 21 kts 54°
2026-04-25 10:40 51.56741 0.68658 47 ft 27 kts 54°
2026-04-25 10:40 51.56820 0.68834 49 ft 30 kts 54°
2026-04-25 10:41 51.56986 0.69202 49 ft 31 kts 54°
2026-04-25 10:41 51.57101 0.69457 49 ft 27 kts 54°
2026-04-25 10:41 51.57198 0.69675 45 ft 20 kts 54°
2026-04-25 10:41 51.57251 0.69793 49 ft 6 kts 55°
2026-04-25 10:42 51.57234 0.69855 47 ft 8 kts 143°
2026-04-25 10:42 51.57178 0.69918 48 ft 10 kts 144°
2026-04-25 10:42 51.57123 0.69981 49 ft 9 kts 144°
2026-04-25 10:42 51.57075 0.70036 49 ft 8 kts 144°
2026-04-25 10:43 51.57033 0.70085 49 ft 7 kts 144°
2026-04-25 10:43 51.56996 0.70127 49 ft 6 kts 144°
2026-04-25 10:43 51.56966 0.70181 49 ft 5 kts 91°
2026-04-25 10:43 51.56993 0.70204 49 ft 5 kts
2026-04-25 10:44 51.57029 0.70208 49 ft 5 kts
2026-04-25 10:44 51.57048 0.70239 48 ft 5 kts 81°
2026-04-25 10:44 51.57045 0.70281 49 ft 3 kts 95°
2026-04-25 10:44 51.57044 0.70294 49 ft 0 kts 95°